Vertical_Velocity
-5 -7 -7 -6 -8 -7 -9 -7 -5 -6 -2 2 1 -1 -2 -4 -1 -2 -2 -3 -2 0
-7 -7 -7 -5 -5 -5 -4 -4 -6 -5 -6 -4 -1 3 2 -3 -2 -5 -0 1 -1 -5
-7 -6 -4 -3 -3 -4 -4 -4 -5 -5 -5 -4 -3 0 -0 1 6 -6 -0 1 1 0
-6 -8 -10 -12 -7 -6 -10 -3 -4 -3 -4 -3 -4 2 -1 1 2 -4 1 -1 -1 1
-3 -1 -3 -2 -1 2 -6 -3 -6 -4 -5 -2 -3 -2 -5 1 4 -5 -3 2 -5 -4
-3 -5 -3 -4 -3 -1 -2 -0 -0 -5 -6 -3 -2 -5 -1 -2 2 1 -2 0 -2 -1
-1 -2 -3 -3 -2 -4 1 -5 2 2 -4 -3 0 -4 -3 -2 0 -2 -2 2 -2 -1
-3 -1 -1 -1 -2 -3 -3 -3 -2 -4 -1 -1 -4 -2 1 1 -0 -2 -4 -0 -4 -4
-3 -1 -0 -2 -4 -3 -2 -0 -4 -3 -3 -3 -4 4 1 -3 -6 -2 -5 -4 -1 -5
-4 -6 -1 -1 -2 1 -3 -2 -0 -2 -1 -4 -4 7 2 2 -4 -5 -5 -3 -3 -2
-4 -4 -0 -1 -1 -2 -4 -3 -2 -1 0 -6 -2 2 2 4 -3 -6 -4 -4 -2 -6
-3 -3 -0 -1 -2 1 -2 2 -1 1 -0 -3 -1 4 2 4 -2 -6 -4 -0 -3 -6
2 1 0 -0 -2 0 2 3 4 3 1 1 -5 6 1 2 -1 -5 -4 1 -3 -4
4 -3 -2 -2 1 -2 -0 -1 -0 2 6 1 -1 1 1 2 -3 -1 -0 -2 -3 -5
Height
3035 3030 3025 3021 3016 3012 3009 3008 3007 3007 3007 3008 3007 3009 3011 3014 3018 3020 3024 3026 3031 3035
3022 3017 3011 3007 3001 2996 2992 2988 2986 2986 2986 2988 2987 2988 2988 2990 2995 2999 3003 3008 3012 3017
3006 3002 2998 2992 2987 2983 2978 2974 2970 2968 2967 2967 2969 2969 2968 2969 2972 2975 2981 2986 2990 2997
2991 2986 2981 2976 2973 2967 2963 2960 2956 2953 2951 2949 2949 2951 2951 2951 2952 2955 2959 2966 2969 2975
2973 2968 2962 2957 2954 2950 2945 2942 2939 2936 2933 2932 2932 2933 2933 2934 2936 2936 2939 2945 2950 2954
2962 2955 2949 2943 2938 2933 2928 2925 2921 2918 2916 2915 2915 2915 2917 2918 2919 2920 2922 2927 2931 2937
2948 2941 2934 2927 2921 2915 2911 2906 2903 2900 2898 2897 2897 2897 2899 2900 2902 2904 2905 2909 2913 2919
2936 2928 2921 2914 2907 2900 2894 2889 2884 2881 2879 2878 2877 2879 2880 2882 2884 2886 2889 2892 2897 2901
2924 2916 2908 2900 2892 2885 2879 2874 2868 2863 2860 2858 2857 2860 2861 2863 2865 2868 2872 2876 2880 2885
2912 2903 2894 2886 2878 2871 2865 2859 2854 2849 2845 2841 2840 2841 2842 2845 2846 2849 2855 2860 2865 2869
2900 2889 2880 2871 2864 2857 2851 2845 2840 2836 2832 2828 2826 2826 2827 2829 2830 2833 2839 2845 2850 2854
2887 2876 2867 2859 2852 2846 2837 2831 2826 2821 2818 2815 2813 2814 2814 2816 2817 2820 2824 2830 2836 2841
2877 2867 2857 2849 2841 2834 2828 2820 2814 2809 2805 2802 2801 2803 2804 2805 2806 2808 2814 2820 2824 2830
2869 2859 2850 2840 2833 2826 2819 2811 2804 2797 2793 2789 2789 2791 2794 2795 2796 2799 2804 2809 2814 2820